Weather History for PHNL - July, 2013

Change the Weather History Date:

Wednesday, July 31, 2013

  Actual Average Record
Temperature  
Mean Temperature 81 °F 82 °F  
Max Temperature 84 °F 88 °F 92 °F (2003)
Min Temperature 77 °F 75 °F 69 °F (1963)
Degree Days  
Heating Degree Days 0 0  
Month to date heating degree days 0 0  
Since 1 June heating degree days 0 0  
Since 1 July heating degree days 0 0  
Cooling Degree Days 16 17  
Month to date cooling degree days 483 502  
Year to date cooling degree days 2352 2460  
Since 1 June cooling degree days 892 958  
Growing Degree Days 30 (Base 50)    
Moisture  
Dew Point 68 °F    
Average Humidity 70    
Maximum Humidity 82    
Minimum Humidity 58    
Precipitation  
Precipitation T in 0.02 in 0.17 in (1985)
Month to date precipitation 0.35 0.51  
Year to date precipitation 8.98 8.34  
Snow  
Snow 0.00 in - - ()
Month to date snowfall 0.0  
Since 1 June snowfall 0.0  
Since 1 July snowfall 0.0  
Snow Depth 0.00 in    
Sea Level Pressure  
Sea Level Pressure 30.09 in    
Wind  
Wind Speed 15 mph (ENE)    
Max Wind Speed 24 mph    
Max Gust Speed 32 mph    
Visibility 10 miles    
Events Rain    
T = Trace of Precipitation, MM = Missing Value Source: NWS Daily Summary

Daily Weather History Graph

Daily Weather History Graph

Search for Another Location

Airport or City:

Trip Planner

Search our weather history database for the weather conditions in past years. The results will help you decide how hot, cold, wet, or windy it might be!

Date:

Astronomy

Jul. 31, 2013 Rise Set
Actual Time 6:04 AM HST 7:10 PM HST
Civil Twilight 5:41 AM HST 7:34 PM HST
Nautical Twilight 5:13 AM HST 8:02 PM HST
Astronomical Twilight 4:44 AM HST 8:31 PM HST
Moon 1:08 AM HST (7/31) 2:34 PM HST (7/31)
Length of Visible Light 13h 53m
Length of Day
13h 05m
Waning Crescent, 30% of the Moon is Illuminated
Jul 31
Waning Crescent
Aug 6
New
Aug 14
First Quarter
Aug 20
Full
Aug 27
Last Quarter

Hourly Weather History & Observations

Time (HST) Temp. Heat Index Dew Point Humidity Pressure Visibility Wind Dir Wind Speed Gust Speed Precip Events Conditions
12:53 AM 79.0 °F - 70.0 °F 74% 30.09 in 10.0 mi NE 13.8 mph 20.7 mph N/A   Scattered Clouds
1:53 AM 79.0 °F - 71.1 °F 77% 30.07 in 10.0 mi NE 15.0 mph 29.9 mph N/A   Scattered Clouds
2:53 AM 78.1 °F - 70.0 °F 76% 30.06 in 10.0 mi ENE 17.3 mph 23.0 mph N/A   Scattered Clouds
3:53 AM 77.0 °F - 71.1 °F 82% 30.07 in 10.0 mi ENE 16.1 mph - N/A   Mostly Cloudy
4:53 AM 77.0 °F - 71.1 °F 82% 30.07 in 10.0 mi ENE 17.3 mph - N/A   Mostly Cloudy
5:53 AM 77.0 °F - 71.1 °F 82% 30.09 in 10.0 mi ENE 19.6 mph 24.2 mph 0.00 in Rain Light Rain
6:00 AM 77.0 °F - 71.6 °F 83% 30.09 in 10.0 mi ENE 16.1 mph 23.0 mph 0.00 in Rain Light Rain
6:32 AM 77.0 °F - 69.8 °F 78% 30.10 in 10.0 mi ENE 17.3 mph 20.7 mph 0.00 in   Mostly Cloudy
6:39 AM 78.8 °F - 69.8 °F 74% 30.10 in 10.0 mi ENE 17.3 mph - 0.00 in   Scattered Clouds
6:53 AM 78.1 °F - 69.1 °F 74% 30.10 in 10.0 mi ENE 12.7 mph - 0.00 in   Mostly Cloudy
7:08 AM 78.8 °F - 69.8 °F 74% 30.10 in 10.0 mi ENE 18.4 mph 25.3 mph N/A   Mostly Cloudy
7:23 AM 77.0 °F - 71.6 °F 83% 30.11 in 10.0 mi NE 11.5 mph - 0.00 in Rain Light Rain
7:53 AM 80.1 °F 82.9 °F 69.1 °F 69% 30.11 in 10.0 mi ENE 16.1 mph 24.2 mph 0.00 in   Mostly Cloudy
8:53 AM 78.1 °F - 72.0 °F 81% 30.12 in 6.0 mi East 11.5 mph - 0.00 in Rain Light Rain
9:53 AM 80.1 °F 83.2 °F 70.0 °F 71% 30.12 in 10.0 mi NE 11.5 mph 25.3 mph 0.00 in Rain Light Rain
10:53 AM 82.0 °F 84.9 °F 68.0 °F 62% 30.10 in 10.0 mi ENE 12.7 mph 23.0 mph 0.00 in   Mostly Cloudy
11:53 AM 81.0 °F 84.4 °F 70.0 °F 69% 30.10 in 10.0 mi ENE 13.8 mph 29.9 mph 0.00 in Rain Light Rain
12:53 PM 82.9 °F 85.4 °F 66.9 °F 58% 30.09 in 10.0 mi East 20.7 mph 27.6 mph 0.00 in   Mostly Cloudy
1:53 PM 82.0 °F 85.5 °F 69.1 °F 65% 30.07 in 10.0 mi NE 17.3 mph 24.2 mph 0.00 in   Mostly Cloudy
2:53 PM 82.0 °F 84.9 °F 68.0 °F 62% 30.06 in 10.0 mi NE 15.0 mph 24.2 mph N/A   Mostly Cloudy
3:53 PM 82.0 °F 84.1 °F 66.0 °F 58% 30.06 in 10.0 mi ENE 21.9 mph 31.1 mph N/A   Mostly Cloudy
4:53 PM 81.0 °F 82.7 °F 64.9 °F 58% 30.05 in 10.0 mi ENE 18.4 mph 27.6 mph N/A   Mostly Cloudy
5:53 PM 80.1 °F 81.9 °F 64.9 °F 60% 30.05 in 10.0 mi ENE 13.8 mph 26.5 mph N/A   Mostly Cloudy
6:53 PM 79.0 °F - 64.9 °F 62% 30.06 in 10.0 mi ENE 16.1 mph 23.0 mph N/A   Mostly Cloudy
7:53 PM 79.0 °F - 66.0 °F 64% 30.07 in 10.0 mi ENE 9.2 mph 18.4 mph N/A   Mostly Cloudy
8:53 PM 79.0 °F - 64.9 °F 62% 30.09 in 10.0 mi ENE 12.7 mph - N/A   Scattered Clouds
9:53 PM 78.1 °F - 64.9 °F 64% 30.11 in 10.0 mi Variable 4.6 mph - N/A   Scattered Clouds
10:53 PM 78.1 °F - 64.9 °F 64% 30.11 in 10.0 mi ENE 12.7 mph 21.9 mph N/A   Mostly Cloudy
11:53 PM 78.1 °F - 64.9 °F 64% 30.11 in 10.0 mi ENE 15.0 mph 24.2 mph 0.00 in   Mostly Cloudy